Date String (YYYY-MM-DD hh:mm:ss) UTC,Instrument flags,Ambient pressure (hPa),Sample flow (lpm),Bypass flow (lpm),Sample temperature (°C),Ambient temperature (°C),ASC tube jacket temperature (°C),LED temperature (°C),Box temperature (°C),Sample RH (%),Span deviation,Mass concentration (μg/m³),Mass concentration (μg/m³),Mass concentration (μg/m³)
DateTimeUTC,F1_M11,P_M11,Q1_M11,Q2_M11,T1_M11,T2_M11,T3_M11,T4_M11,T5_M11,U1_M11,ZSPAN_M11,X0_M11,X2_M11,X1_M11
2022-06-21 20:00:00,,0834.2,5.01,0.00,29.3,28.3,00.0,38.0,31.3,15.4,0000.0,0010.27,0003.37,0001.71
2022-06-21 20:01:00,,0834.2,4.99,0.00,29.3,28.4,00.0,38.0,31.3,15.3,0000.0,0009.62,0003.32,0001.69
2022-06-21 20:02:00,,0834.1,5.01,0.00,29.3,28.5,00.0,38.1,31.3,15.3,0000.0,0009.43,0003.33,0001.70
2022-06-21 20:03:00,,0834.1,5.00,0.00,29.4,28.6,00.0,38.1,31.4,15.4,0000.0,0009.49,0003.38,0001.70
2022-06-21 20:04:00,,0834.1,4.99,0.00,29.4,28.0,00.0,38.0,31.2,15.2,0000.0,0009.50,0003.39,0001.70
2022-06-21 20:05:00,,0834.1,5.00,0.00,29.3,27.1,00.0,38.0,31.0,15.3,0000.0,0009.30,0003.40,0001.71
2022-06-21 20:06:00,,0834.2,5.02,0.00,29.2,26.9,00.0,37.9,30.9,15.3,0000.0,0009.01,0003.40,0001.70
2022-06-21 20:07:00,,0834.2,4.99,0.00,29.2,27.0,00.0,37.9,30.9,15.4,0000.0,0008.78,0003.36,0001.68
2022-06-21 20:08:00,,0834.3,4.99,0.00,29.1,27.1,00.0,37.9,30.9,15.5,0000.0,0008.78,0003.37,0001.67
2022-06-21 20:09:00,,0834.2,5.00,0.00,29.1,27.3,00.0,37.9,30.9,15.4,0000.0,0008.64,0003.35,0001.66
2022-06-21 20:10:00,,0834.2,5.00,0.00,29.1,27.5,00.0,37.9,31.0,15.4,0000.0,0009.75,0003.33,0001.65
2022-06-21 20:11:00,,0834.3,5.00,0.00,29.1,27.6,00.0,37.9,31.0,15.3,0000.0,0009.42,0003.33,0001.66
2022-06-21 20:12:00,,0834.2,4.99,0.00,29.2,27.8,00.0,37.9,31.1,15.2,0000.0,0009.86,0003.35,0001.67
2022-06-21 20:13:00,,0834.1,5.01,0.00,29.2,28.0,00.0,38.0,31.1,15.2,0000.0,0010.22,0003.35,0001.66
2022-06-21 20:14:00,,0834.0,4.99,0.00,29.2,28.1,00.0,38.0,31.2,15.2,0000.0,0009.98,0003.31,0001.64
2022-06-21 20:15:00,,0834.1,4.99,0.00,29.2,28.2,00.0,38.0,31.2,15.0,0000.0,0009.95,0003.31,0001.63
2022-06-21 20:16:00,,0834.0,5.00,0.00,29.3,28.3,00.0,38.0,31.2,15.0,0000.0,0010.09,0003.37,0001.64
2022-06-21 20:17:00,,0834.1,5.00,0.00,29.3,28.4,00.0,38.0,31.3,14.9,0000.0,0009.99,0003.36,0001.65
2022-06-21 20:18:00,,0834.1,4.99,0.00,29.3,28.5,00.0,38.0,31.3,14.9,0000.0,0009.60,0003.35,0001.64
2022-06-21 20:19:00,,0834.1,5.01,0.00,29.4,28.3,00.0,38.0,31.3,14.9,0000.0,0009.59,0003.34,0001.65
2022-06-21 20:20:00,,0834.1,4.99,0.00,29.3,27.4,00.0,38.0,31.1,14.9,0000.0,0009.89,0003.37,0001.65
2022-06-21 20:21:00,,0834.1,5.00,0.00,29.2,26.9,00.0,37.9,30.9,15.0,0000.0,0009.17,0003.39,0001.66
2022-06-21 20:22:00,,0834.0,5.01,0.00,29.2,26.9,00.0,37.9,30.9,15.1,0000.0,0008.79,0003.39,0001.66
2022-06-21 20:23:00,,0834.1,5.01,0.00,29.1,27.0,00.0,37.9,30.9,15.1,0000.0,0009.27,0003.39,0001.67
2022-06-21 20:24:00,,0834.1,5.00,0.00,29.1,27.2,00.0,37.9,30.9,15.1,0000.0,0008.68,0003.36,0001.65
2022-06-21 20:25:00,,0834.1,4.99,0.00,29.1,27.3,00.0,37.9,30.9,15.3,0000.0,0008.94,0003.35,0001.65
2022-06-21 20:26:00,,0834.1,4.99,0.00,29.1,27.5,00.0,37.9,31.0,15.4,0000.0,0008.88,0003.33,0001.65
2022-06-21 20:27:00,,0834.0,5.01,0.00,29.1,27.7,00.0,37.9,31.0,15.4,0000.0,0008.58,0003.23,0001.64
2022-06-21 20:28:00,,0834.1,4.99,0.00,29.1,27.9,00.0,37.9,31.1,15.4,0000.0,0008.62,0003.25,0001.65
2022-06-21 20:29:00,,0834.0,5.00,0.00,29.2,28.0,00.0,37.9,31.1,15.5,0000.0,0008.89,0003.28,0001.66
2022-06-21 20:30:00,,0834.1,5.00,0.00,29.2,28.2,00.0,37.9,31.2,15.5,0000.0,0008.86,0003.30,0001.67
2022-06-21 20:31:00,,0834.0,5.01,0.00,29.2,28.3,00.0,38.0,31.2,15.5,0000.0,0008.62,0003.30,0001.69
2022-06-21 20:32:00,,0834.1,4.99,0.00,29.3,28.4,00.0,38.0,31.3,15.5,0000.0,0009.11,0003.30,0001.70
2022-06-21 20:33:00,,0834.1,5.00,0.00,29.3,28.5,00.0,38.0,31.3,15.4,0000.0,0009.11,0003.29,0001.71
2022-06-21 20:34:00,,0834.0,5.00,0.00,29.3,28.3,00.0,38.0,31.3,15.4,0000.0,0009.37,0003.29,0001.71
2022-06-21 20:35:00,,0834.1,5.00,0.00,29.3,27.4,00.0,37.9,31.0,15.3,0000.0,0009.64,0003.31,0001.71
2022-06-21 20:36:00,,0834.0,5.00,0.00,29.2,27.0,00.0,37.9,30.9,15.4,0000.0,0009.99,0003.35,0001.73
2022-06-21 20:37:00,,0834.1,4.98,0.00,29.1,27.0,00.0,37.9,30.9,15.4,0000.0,0010.19,0003.39,0001.75
2022-06-21 20:38:00,,0834.0,5.00,0.00,29.1,27.1,00.0,37.9,30.9,15.5,0000.0,0010.34,0003.45,0001.77
2022-06-21 20:39:00,,0834.0,5.00,0.00,29.1,27.2,00.0,37.9,30.9,15.5,0000.0,0010.53,0003.45,0001.77
2022-06-21 20:40:00,,0834.0,5.00,0.00,29.1,27.4,00.0,37.9,30.9,15.5,0000.0,0010.50,0003.47,0001.77
2022-06-21 20:41:00,,0834.0,4.99,0.00,29.1,27.6,00.0,37.9,31.0,15.4,0000.0,0010.48,0003.45,0001.76
2022-06-21 20:42:00,,0834.0,5.00,0.00,29.1,27.8,00.0,37.9,31.0,15.3,0000.0,0010.45,0003.41,0001.73
2022-06-21 20:43:00,,0834.0,5.00,0.00,29.1,27.9,00.0,37.9,31.1,15.3,0000.0,0010.34,0003.37,0001.72
2022-06-21 20:44:00,,0834.0,5.00,0.00,29.2,28.1,00.0,37.9,31.1,15.2,0000.0,0010.48,0003.37,0001.73
2022-06-21 20:45:00,,0834.0,5.00,0.00,29.2,28.2,00.0,37.9,31.2,15.2,0000.0,0009.64,0003.38,0001.72
2022-06-21 20:46:00,,0834.0,5.00,0.00,29.2,28.3,00.0,38.0,31.2,15.2,0000.0,0009.34,0003.37,0001.72
2022-06-21 20:47:00,,0834.0,4.99,0.00,29.3,28.4,00.0,38.0,31.3,15.3,0000.0,0009.21,0003.38,0001.71
2022-06-21 20:48:00,,0834.0,5.00,0.00,29.3,28.5,00.0,38.0,31.3,15.3,0000.0,0009.06,0003.35,0001.71
2022-06-21 20:49:00,,0833.9,5.01,0.00,29.3,28.5,00.0,38.0,31.3,15.2,0000.0,0009.33,0003.37,0001.71
2022-06-21 20:50:00,,0833.8,5.00,0.00,29.3,27.8,00.0,38.0,31.2,15.2,0000.0,0009.31,0003.42,0001.72
2022-06-21 20:51:00,,0833.8,5.00,0.00,29.3,27.1,00.0,37.9,31.0,15.3,0000.0,0009.18,0003.41,0001.73
2022-06-21 20:52:00,,0833.8,5.00,0.00,29.2,27.0,00.0,37.9,30.9,15.5,0000.0,0009.12,0003.43,0001.74
2022-06-21 20:53:00,,0833.8,5.00,0.00,29.1,27.0,00.0,37.9,30.9,15.7,0000.0,0009.49,0003.45,0001.76
2022-06-21 20:54:00,,0833.8,5.00,0.00,29.1,27.2,00.0,37.9,30.9,15.7,0000.0,0009.68,0003.48,0001.77
2022-06-21 20:55:00,,0833.8,4.99,0.00,29.1,27.4,00.0,37.9,30.9,15.8,0000.0,0009.36,0003.53,0001.78
2022-06-21 20:56:00,,0833.8,4.99,0.00,29.1,27.5,00.0,37.9,31.0,16.0,0000.0,0009.25,0003.50,0001.79
2022-06-21 20:57:00,,0833.8,5.01,0.00,29.1,27.7,00.0,37.9,31.0,15.8,0000.0,0009.42,0003.54,0001.79
2022-06-21 20:58:00,,0833.8,4.99,0.00,29.2,27.9,00.0,37.9,31.1,15.7,0000.0,0009.21,0003.58,0001.82
2022-06-21 20:59:00,,0833.7,5.01,0.00,29.2,28.1,00.0,37.9,31.1,15.6,0000.0,0009.17,0003.60,0001.84
